Previsão horária em Cayos Cochinos

Hoje, 25 Julho, Domingo

Tempo Temperatura Precipitação Vento Pressão Humidade
00:00 +25°C° 0 mm 3 m/s 760 mmHg 98%
01:00 +25°C° 0 mm 2 m/s 759 mmHg 98%
02:00 +25°C° 0 mm 2 m/s 759 mmHg 97%
03:00 +24°C° 0 mm 2 m/s 759 mmHg 97%
04:00 +24°C° 0 mm 2 m/s 759 mmHg 96%
05:00 +24°C° 0 mm 2 m/s 758 mmHg 95%
06:00 +24°C° 0 mm 2 m/s 758 mmHg 94%
07:00 +27°C° 0 mm 1 m/s 759 mmHg 79%
08:00 +30°C° 0 mm 1 m/s 759 mmHg 65%
09:00 +31°C° 0 mm 0 m/s 759 mmHg 51%
10:00 +33°C° 0 mm 1 m/s 759 mmHg 51%
11:00 +35°C° 0 mm 2 m/s 759 mmHg 51%
12:00 +35°C° 0 mm 2 m/s 759 mmHg 51%
13:00 +35°C° 0 mm 2 m/s 759 mmHg 53%
14:00 +34°C° 0 mm 3 m/s 758 mmHg 54%
15:00 +34°C° 0 mm 3 m/s 758 mmHg 56%
16:00 +31°C° 0 mm 3 m/s 758 mmHg 63%
17:00 +30°C° 0 mm 3 m/s 758 mmHg 70%
18:00 +28°C° 0 mm 3 m/s 758 mmHg 77%
19:00 +27°C° 0 mm 3 m/s 758 mmHg 83%
20:00 +26°C° 0 mm 3 m/s 758 mmHg 89%
21:00 +25°C° 0 mm 3 m/s 759 mmHg 94%
22:00 +25°C° 0 mm 3 m/s 759 mmHg 95%
23:00 +24°C° 0 mm 3 m/s 758 mmHg 96%

Amanhã, 26 Julho, Segunda-feira

Tempo Temperatura Precipitação Vento Pressão Humidade
00:00 +24°C° 0 mm 3 m/s 758 mmHg 97%
01:00 +24°C° 0 mm 3 m/s 758 mmHg 97%
02:00 +24°C° 0 mm 2 m/s 757 mmHg 97%
03:00 +24°C° 0 mm 2 m/s 757 mmHg 96%
04:00 +24°C° 0 mm 2 m/s 757 mmHg 95%
05:00 +24°C° 0 mm 2 m/s 757 mmHg 93%
06:00 +24°C° 0 mm 2 m/s 757 mmHg 92%
07:00 +27°C° 0 mm 1 m/s 758 mmHg 79%
08:00 +30°C° 0 mm 1 m/s 758 mmHg 66%
09:00 +33°C° 0 mm 1 m/s 759 mmHg 53%
10:00 +34°C° 0 mm 1 m/s 759 mmHg 53%
11:00 +35°C° 0 mm 2 m/s 758 mmHg 52%
12:00 +35°C° 0 mm 2 m/s 758 mmHg 52%
13:00 +35°C° 0 mm 3 m/s 758 mmHg 54%
14:00 +34°C° 0 mm 3 m/s 757 mmHg 55%
15:00 +34°C° 0 mm 4 m/s 757 mmHg 57%
16:00 +32°C° 0 mm 4 m/s 757 mmHg 64%
17:00 +30°C° 0 mm 4 m/s 757 mmHg 71%
18:00 +29°C° 0 mm 4 m/s 758 mmHg 78%
19:00 +28°C° 0 mm 4 m/s 758 mmHg 83%
20:00 +27°C° 0 mm 4 m/s 758 mmHg 89%
21:00 +26°C° 0 mm 5 m/s 759 mmHg 95%
22:00 +25°C° 0 mm 5 m/s 759 mmHg 95%
23:00 +25°C° 0 mm 4 m/s 758 mmHg 95%

Depois de amanhã, 27 Julho, Terça-feira

Tempo Temperatura Precipitação Vento Pressão Humidade
00:00 +25°C° 0 mm 4 m/s 758 mmHg 95%
01:00 +25°C° 0 mm 4 m/s 758 mmHg 95%
02:00 +24°C° 0 mm 3 m/s 758 mmHg 95%
03:00 +24°C° 0 mm 2 m/s 757 mmHg 95%
04:00 +24°C° 0 mm 2 m/s 758 mmHg 93%
05:00 +24°C° 0 mm 2 m/s 758 mmHg 92%
06:00 +24°C° 0 mm 2 m/s 758 mmHg 91%
07:00 +27°C° 0 mm 2 m/s 759 mmHg 77%
08:00 +31°C° 0 mm 1 m/s 759 mmHg 64%
09:00 +34°C° 0 mm 1 m/s 759 mmHg 51%
10:00 +35°C° 0 mm 2 m/s 759 mmHg 51%
11:00 +35°C° 0 mm 2 m/s 759 mmHg 52%
12:00 +35°C° 0 mm 3 m/s 759 mmHg 53%
13:00 +33°C° 0.5 mm 3 m/s 758 mmHg 65%
14:00 +30°C° 0.5 mm 4 m/s 758 mmHg 77%
15:00 +28°C° 0.5 mm 4 m/s 757 mmHg 88%
16:00 +27°C° 1.4 mm 4 m/s 758 mmHg 91%
17:00 +27°C° 1.4 mm 4 m/s 758 mmHg 94%
18:00 +26°C° 1.4 mm 3 m/s 758 mmHg 97%
19:00 +26°C° 0 mm 3 m/s 758 mmHg 97%
20:00 +26°C° 0 mm 3 m/s 759 mmHg 97%
21:00 +25°C° 0 mm 3 m/s 759 mmHg 97%
22:00 +25°C° 0 mm 3 m/s 759 mmHg 97%
23:00 +23°C° 0 mm 4 m/s 759 mmHg 97%

28 Julho, Quarta-feira

Tempo Temperatura Precipitação Vento Pressão Humidade
00:00 +23°C° 0 mm 4 m/s 758 mmHg 97%
01:00 +23°C° 0 mm 4 m/s 758 mmHg 97%
02:00 +23°C° 0 mm 4 m/s 758 mmHg 97%
03:00 +23°C° 0 mm 4 m/s 758 mmHg 97%
04:00 +24°C° 0 mm 3 m/s 758 mmHg 97%
05:00 +24°C° 0 mm 3 m/s 758 mmHg 96%
06:00 +24°C° 0 mm 3 m/s 758 mmHg 96%
07:00 +27°C° 0 mm 3 m/s 759 mmHg 83%
08:00 +30°C° 0 mm 3 m/s 759 mmHg 71%
09:00 +32°C° 0 mm 2 m/s 759 mmHg 59%
10:00 +34°C° 0.1 mm 3 m/s 759 mmHg 59%
11:00 +34°C° 0.1 mm 4 m/s 759 mmHg 59%
12:00 +34°C° 0.1 mm 4 m/s 758 mmHg 59%
13:00 +33°C° 1.2 mm 5 m/s 758 mmHg 69%
14:00 +30°C° 1.2 mm 7 m/s 758 mmHg 79%
15:00 +29°C° 1.2 mm 8 m/s 757 mmHg 89%
16:00 +28°C° 0.8 mm 7 m/s 757 mmHg 89%
17:00 +27°C° 0.8 mm 7 m/s 757 mmHg 89%
18:00 +26°C° 0.8 mm 7 m/s 757 mmHg 89%
19:00 +26°C° 0 mm 6 m/s 758 mmHg 90%
20:00 +24°C° 0 mm 6 m/s 758 mmHg 92%
21:00 +24°C° 0 mm 6 m/s 758 mmHg 93%
22:00 +24°C° 0 mm 6 m/s 758 mmHg 92%
23:00 +25°C° 0 mm 5 m/s 758 mmHg 91%

29 Julho, Quinta-feira

Tempo Temperatura Precipitação Vento Pressão Humidade
00:00 +25°C° 0 mm 5 m/s 758 mmHg 91%
01:00 +25°C° 0 mm 5 m/s 758 mmHg 92%
02:00 +23°C° 0 mm 4 m/s 758 mmHg 93%
03:00 +23°C° 0 mm 4 m/s 758 mmHg 95%
04:00 +24°C° 0 mm 3 m/s 758 mmHg 94%
05:00 +24°C° 0 mm 3 m/s 758 mmHg 92%
06:00 +24°C° 0 mm 2 m/s 758 mmHg 91%
07:00 +27°C° 0 mm 2 m/s 759 mmHg 76%
08:00 +31°C° 0 mm 2 m/s 759 mmHg 61%
09:00 +35°C° 0 mm 2 m/s 759 mmHg 47%
10:00 +35°C° 0 mm 3 m/s 759 mmHg 45%
11:00 +36°C° 0 mm 4 m/s 759 mmHg 44%
12:00 +36°C° 0 mm 5 m/s 759 mmHg 43%
13:00 +36°C° 0 mm 5 m/s 758 mmHg 48%
14:00 +35°C° 0 mm 6 m/s 758 mmHg 52%
15:00 +34°C° 0 mm 6 m/s 758 mmHg 57%
16:00 +32°C° 0.4 mm 6 m/s 758 mmHg 69%
17:00 +29°C° 0.4 mm 6 m/s 758 mmHg 80%
18:00 +27°C° 0.4 mm 6 m/s 758 mmHg 92%
19:00 +27°C° 0.2 mm 6 m/s 758 mmHg 94%
20:00 +26°C° 0.2 mm 6 m/s 759 mmHg 96%
21:00 +26°C° 0.2 mm 5 m/s 759 mmHg 98%
22:00 +25°C° 0 mm 5 m/s 759 mmHg 98%
23:00 +25°C° 0 mm 5 m/s 759 mmHg 98%

30 Julho, Sexta-feira

Tempo Temperatura Precipitação Vento Pressão Humidade
00:00 +25°C° 0 mm 4 m/s 759 mmHg 98%
01:00 +25°C° 0 mm 4 m/s 758 mmHg 98%
02:00 +25°C° 0 mm 3 m/s 758 mmHg 98%
03:00 +24°C° 0 mm 3 m/s 758 mmHg 98%
04:00 +24°C° 0 mm 3 m/s 758 mmHg 98%
05:00 +24°C° 0 mm 3 m/s 758 mmHg 98%
06:00 +24°C° 0 mm 3 m/s 759 mmHg 98%
07:00 +27°C° 0 mm 2 m/s 759 mmHg 84%
08:00 +30°C° 0 mm 2 m/s 759 mmHg 71%
09:00 +34°C° 0 mm 2 m/s 759 mmHg 57%
10:00 +34°C° 0 mm 3 m/s 759 mmHg 54%
11:00 +35°C° 0 mm 3 m/s 759 mmHg 51%
12:00 +36°C° 0 mm 4 m/s 759 mmHg 47%
13:00 +35°C° 0 mm 5 m/s 759 mmHg 53%
14:00 +34°C° 0 mm 5 m/s 758 mmHg 59%
15:00 +33°C° 0 mm 6 m/s 758 mmHg 65%
16:00 +30°C° 1.3 mm 6 m/s 759 mmHg 75%
17:00 +28°C° 1.3 mm 7 m/s 759 mmHg 86%
18:00 +26°C° 1.3 mm 7 m/s 759 mmHg 96%
19:00 +26°C° 0.4 mm 6 m/s 759 mmHg 97%
20:00 +26°C° 0.4 mm 5 m/s 760 mmHg 97%
21:00 +25°C° 0.4 mm 4 m/s 760 mmHg 98%
22:00 +25°C° 0 mm 4 m/s 760 mmHg 98%
23:00 +25°C° 0 mm 4 m/s 759 mmHg 98%
Mostrar mais

Necessitamos do seu Consentimento

A Meteoprog e os seus Fornecedores de Serviços podem armazenar e aceder a dados pessoais como cookies, identificadores do dispositivo ou outras tecnologias semelhantes existentes no seu dispositivo e processar estes dados para personalizar conteúdos e anúncios, assim como funcionalidades nas redes sociais e análise de tráfego.

  • Armazenar e/ou aceder a informações no seu dispositivo

    Os cookies, identificadores do dispositivo ou outras informações podem ser armazenados ou acedidos no seu dispositivo, para os fins acima indicados.

  • Anúncios e conteúdos personalizados, medição de anúncios e conteúdos, dados sobre o público-alvo e desenvolvimento de produtos

    Os anúncios e os conteúdos podem ser personalizados com base num perfil. Podem ser adicionados dados adicionais para uma maior personalização dos anúncios e dos conteúdos. A eficácia dos anúncios e dos conteúdos pode ser medida. Podem ser obtidas informações sobre o público que visualizou os anúncios e os conteúdos. Estes dados podem ser usados para desenvolver ou melhorar sistemas, softwares ou a experiência do utilizador.

Ao clicar em "Eu concordo”, permitirá o uso de cookies, identificadores do dispositivo e web beacons mencionados ou outras tecnologias semelhantes. As configurações do navegador do seu dispositivo podem ser alteradas.

Para certos fins, podem ser invocados interesses legítimos ao invés de consentimento. Pode ler mais informação sobre este assunto na nossa Política de Privacidade e Cookies.